WXM80 ListenWXM80 Stop

You find our weather info also at:

UK Metoffice

WeatherCloud

Weather Underground

Northeastern Weather Network

AWEKAS

Citizen Weather Observer Program (CWOP)

HAMweather, WeatherForYou, PWS Weather


Weather Underground History page Text

Daily Summary for January 17, 2017 Units:  Both    English   Metric
« Previous Day
Next Day »
Daily Weekly Monthly Yearly Custom
  High: Low: Average:
Temperature: 40.8 °F /  4.9 °C 37.0 °F /  2.8 °C 38.6 °F /  3.7 °C
Dew Point: 38.7 °F /  3.7 °C 29.8 °F /  -1.2 °C 34.3 °F /  1.3 °C
Humidity: 97 % 69 % 85 %
Wind Speed: 9.0 mph /  14.5 km/h - 2 mph /  3.2 km/h
Wind Gust: 14.0 mph /  22.5 km/h - -
Wind:- - ESE
Pressure: 30.25 in /  1024.3 hPa 29.92 in /  1013.1 hPa -
Precipitation: 0.00 in /  0 mm    
Historical Graphs
 
 
Tabular Data for January 17, 2017
Time Temperature Dew Point Pressure Wind Wind Speed Wind Gust Humidity Rainfall Rate (Hourly)
00:02 38.6 °F /  3.7 °C 30.0 °F /  -1.1 °C 30.25 in /  1024.3 hPa WSW 0.4 mph /  0.6 km/h 3.5 mph /  5.6 km/h 71 % 0.00 in /  0 mm
00:07 38.7 °F /  3.7 °C 29.8 °F /  -1.2 °C 30.24 in /  1023.9 hPa WSW 1.2 mph /  1.9 km/h 4.6 mph /  7.4 km/h 70 % 0.00 in /  0 mm
00:12 38.8 °F /  3.8 °C 29.8 °F /  -1.2 °C 30.24 in /  1023.9 hPa SSW 2.9 mph /  4.7 km/h 3.5 mph /  5.6 km/h 70 % 0.00 in /  0 mm
00:17 38.8 °F /  3.8 °C 29.8 °F /  -1.2 °C 30.24 in /  1023.9 hPa SSW 2.0 mph /  3.2 km/h 3.5 mph /  5.6 km/h 70 % 0.00 in /  0 mm
00:22 38.9 °F /  3.8 °C 29.9 °F /  -1.2 °C 30.24 in /  1023.9 hPa SW 1.0 mph /  1.6 km/h 3.5 mph /  5.6 km/h 70 % 0.00 in /  0 mm
00:27 38.9 °F /  3.8 °C 29.9 °F /  -1.2 °C 30.23 in /  1023.6 hPa SW 0.1 mph /  0.2 km/h 2.3 mph /  3.7 km/h 70 % 0.00 in /  0 mm
00:32 38.9 °F /  3.8 °C 29.9 °F /  -1.2 °C 30.23 in /  1023.6 hPa SSW 2.5 mph /  4 km/h 4.0 mph /  6.4 km/h 70 % 0.00 in /  0 mm
00:37 39.0 °F /  3.9 °C 30.0 °F /  -1.1 °C 30.23 in /  1023.6 hPa SW 0.2 mph /  0.3 km/h 3.5 mph /  5.6 km/h 70 % 0.00 in /  0 mm
00:42 39.1 °F /  3.9 °C 29.8 °F /  -1.2 °C 30.23 in /  1023.6 hPa WSW 0.8 mph /  1.3 km/h 3.5 mph /  5.6 km/h 69 % 0.00 in /  0 mm
00:47 39.1 °F /  3.9 °C 30.1 °F /  -1.1 °C 30.23 in /  1023.6 hPa SW 2.0 mph /  3.2 km/h 3.5 mph /  5.6 km/h 70 % 0.00 in /  0 mm
00:52 39.2 °F /  4 °C 30.2 °F /  -1 °C 30.23 in /  1023.6 hPa SW 3.3 mph /  5.3 km/h 4.6 mph /  7.4 km/h 70 % 0.00 in /  0 mm
00:57 39.3 °F /  4.1 °C 30.3 °F /  -0.9 °C 30.23 in /  1023.6 hPa West 2.3 mph /  3.7 km/h 9.0 mph /  14.5 km/h 70 % 0.00 in /  0 mm
01:03 39.3 °F /  4.1 °C 30.0 °F /  -1.1 °C 30.23 in /  1023.6 hPa SSW 3.9 mph /  6.3 km/h 5.0 mph /  8 km/h 69 % 0.00 in /  0 mm
01:08 39.4 °F /  4.1 °C 30.4 °F /  -0.9 °C 30.23 in /  1023.6 hPa SW 5.3 mph /  8.5 km/h 6.0 mph /  9.7 km/h 70 % 0.00 in /  0 mm
01:13 39.5 °F /  4.2 °C 30.5 °F /  -0.8 °C 30.23 in /  1023.6 hPa SW 3.0 mph /  4.8 km/h 7.0 mph /  11.3 km/h 70 % 0.00 in /  0 mm
01:18 39.5 °F /  4.2 °C 30.5 °F /  -0.8 °C 30.23 in /  1023.6 hPa SW 3.6 mph /  5.8 km/h 3.6 mph /  5.8 km/h 70 % 0.00 in /  0 mm
01:23 39.5 °F /  4.2 °C 30.5 °F /  -0.8 °C 30.23 in /  1023.6 hPa WSW 2.8 mph /  4.5 km/h 6.9 mph /  11.1 km/h 70 % 0.00 in /  0 mm
01:28 39.5 °F /  4.2 °C 30.5 °F /  -0.8 °C 30.23 in /  1023.6 hPa WSW 2.7 mph /  4.3 km/h 5.0 mph /  8 km/h 70 % 0.00 in /  0 mm
01:33 39.5 °F /  4.2 °C 30.5 °F /  -0.8 °C 30.23 in /  1023.6 hPa SW 4.9 mph /  7.9 km/h 8.1 mph /  13 km/h 70 % 0.00 in /  0 mm
01:38 39.5 °F /  4.2 °C 30.5 °F /  -0.8 °C 30.23 in /  1023.6 hPa WSW 3.4 mph /  5.5 km/h 6.9 mph /  11.1 km/h 70 % 0.00 in /  0 mm
01:43 39.6 °F /  4.2 °C 30.6 °F /  -0.8 °C 30.23 in /  1023.6 hPa SW 3.2 mph /  5.1 km/h 5.8 mph /  9.3 km/h 70 % 0.00 in /  0 mm
01:48 39.5 °F /  4.2 °C 30.5 °F /  -0.8 °C 30.23 in /  1023.6 hPa SSW 5.2 mph /  8.4 km/h 9.2 mph /  14.8 km/h 70 % 0.00 in /  0 mm
01:53 39.5 °F /  4.2 °C 30.5 °F /  -0.8 °C 30.23 in /  1023.6 hPa WSW 4.1 mph /  6.6 km/h 6.0 mph /  9.7 km/h 70 % 0.00 in /  0 mm
01:58 39.5 °F /  4.2 °C 30.5 °F /  -0.8 °C 30.23 in /  1023.6 hPa SW 2.2 mph /  3.5 km/h 3.5 mph /  5.6 km/h 70 % 0.00 in /  0 mm
02:03 39.4 °F /  4.1 °C 30.4 °F /  -0.9 °C 30.23 in /  1023.6 hPa SSW 3.0 mph /  4.8 km/h 5.0 mph /  8 km/h 70 % 0.00 in /  0 mm
02:08 39.4 °F /  4.1 °C 30.4 °F /  -0.9 °C 30.23 in /  1023.6 hPa WSW 4.4 mph /  7.1 km/h 6.9 mph /  11.1 km/h 70 % 0.00 in /  0 mm
02:13 39.3 °F /  4.1 °C 30.3 °F /  -0.9 °C 30.23 in /  1023.6 hPa SW 2.6 mph /  4.2 km/h 4.6 mph /  7.4 km/h 70 % 0.00 in /  0 mm
02:18 39.3 °F /  4.1 °C 30.3 °F /  -0.9 °C 30.23 in /  1023.6 hPa SW 1.7 mph /  2.7 km/h 3.5 mph /  5.6 km/h 70 % 0.00 in /  0 mm
02:23 39.2 °F /  4 °C 30.2 °F /  -1 °C 30.22 in /  1023.2 hPa SW 1.3 mph /  2.1 km/h 3.5 mph /  5.6 km/h 70 % 0.00 in /  0 mm
02:29 39.1 °F /  3.9 °C 30.1 °F /  -1.1 °C 30.22 in /  1023.2 hPa WSW 1.5 mph /  2.4 km/h 4.6 mph /  7.4 km/h 70 % 0.00 in /  0 mm
02:34 39.0 °F /  3.9 °C 30.0 °F /  -1.1 °C 30.22 in /  1023.2 hPa WSW 2.0 mph /  3.2 km/h 3.5 mph /  5.6 km/h 70 % 0.00 in /  0 mm
02:39 39.0 °F /  3.9 °C 30.4 °F /  -0.9 °C 30.22 in /  1023.2 hPa WSW 0.3 mph /  0.5 km/h 1.0 mph /  1.6 km/h 71 % 0.00 in /  0 mm
02:44 38.9 °F /  3.8 °C 29.9 °F /  -1.2 °C 30.21 in /  1022.9 hPa Calm   4.0 mph /  6.4 km/h 70 % 0.00 in /  0 mm
02:49 38.8 °F /  3.8 °C 30.2 °F /  -1 °C 30.21 in /  1022.9 hPa West 2.0 mph /  3.2 km/h 4.0 mph /  6.4 km/h 71 % 0.00 in /  0 mm
02:54 38.8 °F /  3.8 °C 30.2 °F /  -1 °C 30.21 in /  1022.9 hPa WSW 1.0 mph /  1.6 km/h 6.0 mph /  9.7 km/h 71 % 0.00 in /  0 mm
02:59 38.7 °F /  3.7 °C 30.1 °F /  -1.1 °C 30.20 in /  1022.6 hPa SW 0.1 mph /  0.2 km/h   71 % 0.00 in /  0 mm
03:04 38.6 °F /  3.7 °C 30.0 °F /  -1.1 °C 30.20 in /  1022.6 hPa Calm   3.0 mph /  4.8 km/h 71 % 0.00 in /  0 mm
03:09 38.6 °F /  3.7 °C 30.0 °F /  -1.1 °C 30.20 in /  1022.6 hPa Calm   1.0 mph /  1.6 km/h 71 % 0.00 in /  0 mm
03:14 38.5 °F /  3.6 °C 29.9 °F /  -1.2 °C 30.20 in /  1022.6 hPa Calm   2.0 mph /  3.2 km/h 71 % 0.00 in /  0 mm
03:19 38.4 °F /  3.6 °C 30.2 °F /  -1 °C 30.20 in /  1022.6 hPa Calm   1.0 mph /  1.6 km/h 72 % 0.00 in /  0 mm
03:24 38.3 °F /  3.5 °C 30.1 °F /  -1.1 °C 30.20 in /  1022.6 hPa SW 1.0 mph /  1.6 km/h 3.0 mph /  4.8 km/h 72 % 0.00 in /  0 mm
03:29 38.2 °F /  3.4 °C 30.0 °F /  -1.1 °C 30.20 in /  1022.6 hPa SW 1.0 mph /  1.6 km/h 3.0 mph /  4.8 km/h 72 % 0.00 in /  0 mm
03:34 38.1 °F /  3.4 °C 29.9 °F /  -1.2 °C 30.20 in /  1022.6 hPa Calm   4.0 mph /  6.4 km/h 72 % 0.00 in /  0 mm
03:39 38.0 °F /  3.3 °C 30.1 °F /  -1.1 °C 30.20 in /  1022.6 hPa Calm   3.0 mph /  4.8 km/h 73 % 0.00 in /  0 mm
03:44 37.9 °F /  3.3 °C 30.0 °F /  -1.1 °C 30.20 in /  1022.6 hPa Calm   4.0 mph /  6.4 km/h 73 % 0.00 in /  0 mm
03:49 37.8 °F /  3.2 °C 29.9 °F /  -1.2 °C 30.20 in /  1022.6 hPa SW 0.3 mph /  0.5 km/h 2.3 mph /  3.7 km/h 73 % 0.00 in /  0 mm
03:54 37.8 °F /  3.2 °C 29.9 °F /  -1.2 °C 30.20 in /  1022.6 hPa SW 0.7 mph /  1.1 km/h 2.3 mph /  3.7 km/h 73 % 0.00 in /  0 mm
03:59 37.8 °F /  3.2 °C 29.9 °F /  -1.2 °C 30.20 in /  1022.6 hPa WSW 1.6 mph /  2.6 km/h 3.5 mph /  5.6 km/h 73 % 0.00 in /  0 mm
04:04 37.7 °F /  3.2 °C 30.2 °F /  -1 °C 30.20 in /  1022.6 hPa Calm     74 % 0.00 in /  0 mm
04:09 37.7 °F /  3.2 °C 30.2 °F /  -1 °C 30.20 in /  1022.6 hPa WSW 0.4 mph /  0.6 km/h 2.0 mph /  3.2 km/h 74 % 0.00 in /  0 mm
04:14 37.8 °F /  3.2 °C 30.3 °F /  -0.9 °C 30.20 in /  1022.6 hPa WSW 1.5 mph /  2.4 km/h 3.5 mph /  5.6 km/h 74 % 0.00 in /  0 mm
04:19 37.9 °F /  3.3 °C 30.4 °F /  -0.9 °C 30.20 in /  1022.6 hPa WNW 1.2 mph /  1.9 km/h 3.5 mph /  5.6 km/h 74 % 0.00 in /  0 mm
04:24 37.9 °F /  3.3 °C 30.4 °F /  -0.9 °C 30.20 in /  1022.6 hPa Calm   1.2 mph /  1.9 km/h 74 % 0.00 in /  0 mm
04:29 38.0 °F /  3.3 °C 30.4 °F /  -0.9 °C 30.19 in /  1022.2 hPa West 2.1 mph /  3.4 km/h 3.5 mph /  5.6 km/h 74 % 0.00 in /  0 mm
04:35 38.1 °F /  3.4 °C 30.5 °F /  -0.8 °C 30.19 in /  1022.2 hPa West 1.0 mph /  1.6 km/h 3.5 mph /  5.6 km/h 74 % 0.00 in /  0 mm
04:40 38.2 °F /  3.4 °C 30.6 °F /  -0.8 °C 30.20 in /  1022.6 hPa West 1.5 mph /  2.4 km/h 3.5 mph /  5.6 km/h 74 % 0.00 in /  0 mm
04:45 38.2 °F /  3.4 °C 30.6 °F /  -0.8 °C 30.20 in /  1022.6 hPa West 0.2 mph /  0.3 km/h 3.5 mph /  5.6 km/h 74 % 0.00 in /  0 mm
04:50 38.3 °F /  3.5 °C 30.7 °F /  -0.7 °C 30.20 in /  1022.6 hPa Calm     74 % 0.00 in /  0 mm
04:55 38.4 °F /  3.6 °C 30.8 °F /  -0.7 °C 30.20 in /  1022.6 hPa Calm   1.2 mph /  1.9 km/h 74 % 0.00 in /  0 mm
05:00 38.5 °F /  3.6 °C 30.9 °F /  -0.6 °C 30.19 in /  1022.2 hPa West 0.2 mph /  0.3 km/h 2.3 mph /  3.7 km/h 74 % 0.00 in /  0 mm
05:05 38.6 °F /  3.7 °C 31.0 °F /  -0.6 °C 30.19 in /  1022.2 hPa Calm   1.2 mph /  1.9 km/h 74 % 0.00 in /  0 mm
05:10 38.6 °F /  3.7 °C 31.0 °F /  -0.6 °C 30.19 in /  1022.2 hPa Calm     74 % 0.00 in /  0 mm
05:15 38.7 °F /  3.7 °C 31.1 °F /  -0.5 °C 30.19 in /  1022.2 hPa Calm     74 % 0.00 in /  0 mm
05:20 38.7 °F /  3.7 °C 31.1 °F /  -0.5 °C 30.19 in /  1022.2 hPa Calm     74 % 0.00 in /  0 mm
05:25 38.7 °F /  3.7 °C 31.1 °F /  -0.5 °C 30.18 in /  1021.9 hPa Calm     74 % 0.00 in /  0 mm
05:30 38.7 °F /  3.7 °C 31.1 °F /  -0.5 °C 30.19 in /  1022.2 hPa Calm     74 % 0.00 in /  0 mm
05:35 38.8 °F /  3.8 °C 31.2 °F /  -0.4 °C 30.18 in /  1021.9 hPa Calm     74 % 0.00 in /  0 mm
05:40 38.8 °F /  3.8 °C 31.2 °F /  -0.4 °C 30.18 in /  1021.9 hPa Calm     74 % 0.00 in /  0 mm
05:46 38.8 °F /  3.8 °C 31.2 °F /  -0.4 °C 30.19 in /  1022.2 hPa Calm     74 % 0.00 in /  0 mm
05:51 38.7 °F /  3.7 °C 31.5 °F /  -0.3 °C 30.20 in /  1022.6 hPa Calm     75 % 0.00 in /  0 mm
05:56 38.6 °F /  3.7 °C 31.0 °F /  -0.6 °C 30.20 in /  1022.6 hPa Calm     74 % 0.00 in /  0 mm
06:01 38.6 °F /  3.7 °C 31.4 °F /  -0.3 °C 30.20 in /  1022.6 hPa Calm     75 % 0.00 in /  0 mm
06:06 38.5 °F /  3.6 °C 31.3 °F /  -0.4 °C 30.20 in /  1022.6 hPa Calm     75 % 0.00 in /  0 mm
06:11 38.4 °F /  3.6 °C 31.2 °F /  -0.4 °C 30.19 in /  1022.2 hPa Calm     75 % 0.00 in /  0 mm
06:16 38.3 °F /  3.5 °C 31.4 °F /  -0.3 °C 30.19 in /  1022.2 hPa Calm     76 % 0.00 in /  0 mm
06:21 38.2 °F /  3.4 °C 31.3 °F /  -0.4 °C 30.20 in /  1022.6 hPa Calm     76 % 0.00 in /  0 mm
06:26 38.0 °F /  3.3 °C 31.1 °F /  -0.5 °C 30.20 in /  1022.6 hPa Calm     76 % 0.00 in /  0 mm
06:31 38.0 °F /  3.3 °C 31.1 °F /  -0.5 °C 30.20 in /  1022.6 hPa Calm     76 % 0.00 in /  0 mm
06:36 37.8 °F /  3.2 °C 31.2 °F /  -0.4 °C 30.19 in /  1022.2 hPa Calm     77 % 0.00 in /  0 mm
06:41 37.7 °F /  3.2 °C 31.1 °F /  -0.5 °C 30.19 in /  1022.2 hPa Calm     77 % 0.00 in /  0 mm
06:46 37.7 °F /  3.2 °C 31.1 °F /  -0.5 °C 30.20 in /  1022.6 hPa Calm     77 % 0.00 in /  0 mm
06:51 37.5 °F /  3.1 °C 30.9 °F /  -0.6 °C 30.20 in /  1022.6 hPa Calm     77 % 0.00 in /  0 mm
06:56 37.5 °F /  3.1 °C 30.9 °F /  -0.6 °C 30.20 in /  1022.6 hPa Calm     77 % 0.00 in /  0 mm
07:01 37.5 °F /  3.1 °C 31.3 °F /  -0.4 °C 30.20 in /  1022.6 hPa Calm     78 % 0.00 in /  0 mm
07:06 37.4 °F /  3 °C 31.2 °F /  -0.4 °C 30.20 in /  1022.6 hPa Calm     78 % 0.00 in /  0 mm
07:11 37.4 °F /  3 °C 31.5 °F /  -0.3 °C 30.20 in /  1022.6 hPa Calm     79 % 0.00 in /  0 mm
07:17 37.4 °F /  3 °C 31.5 °F /  -0.3 °C 30.20 in /  1022.6 hPa Calm     79 % 0.00 in /  0 mm
07:22 37.4 °F /  3 °C 31.5 °F /  -0.3 °C 30.20 in /  1022.6 hPa Calm     79 % 0.00 in /  0 mm
07:27 37.3 °F /  2.9 °C 31.4 °F /  -0.3 °C 30.19 in /  1022.2 hPa Calm     79 % 0.00 in /  0 mm
07:32 37.3 °F /  2.9 °C 31.4 °F /  -0.3 °C 30.19 in /  1022.2 hPa Calm     79 % 0.00 in /  0 mm
07:37 37.1 °F /  2.8 °C 31.5 °F /  -0.3 °C 30.19 in /  1022.2 hPa Calm     80 % 0.00 in /  0 mm
07:42 37.1 °F /  2.8 °C 31.5 °F /  -0.3 °C 30.19 in /  1022.2 hPa Calm     80 % 0.00 in /  0 mm
07:47 37.0 °F /  2.8 °C 31.7 °F /  -0.2 °C 30.20 in /  1022.6 hPa West 0.8 mph /  1.3 km/h 2.0 mph /  3.2 km/h 81 % 0.00 in /  0 mm
07:52 37.0 °F /  2.8 °C 31.7 °F /  -0.2 °C 30.20 in /  1022.6 hPa West 0.3 mph /  0.5 km/h 1.2 mph /  1.9 km/h 81 % 0.00 in /  0 mm
07:57 37.0 °F /  2.8 °C 31.7 °F /  -0.2 °C 30.20 in /  1022.6 hPa Calm     81 % 0.00 in /  0 mm
08:02 37.0 °F /  2.8 °C 31.7 °F /  -0.2 °C 30.20 in /  1022.6 hPa Calm     81 % 0.00 in /  0 mm
08:07 37.1 °F /  2.8 °C 31.8 °F /  -0.1 °C 30.20 in /  1022.6 hPa Calm     81 % 0.00 in /  0 mm
08:12 37.2 °F /  2.9 °C 31.9 °F /  -0.1 °C 30.21 in /  1022.9 hPa Calm     81 % 0.00 in /  0 mm
08:17 37.3 °F /  2.9 °C 32.3 °F /  0.2 °C 30.21 in /  1022.9 hPa Calm     82 % 0.00 in /  0 mm
08:22 37.4 °F /  3 °C 32.4 °F /  0.2 °C 30.21 in /  1022.9 hPa Calm   1.0 mph /  1.6 km/h 82 % 0.00 in /  0 mm
08:27 37.5 °F /  3.1 °C 32.5 °F /  0.3 °C 30.21 in /  1022.9 hPa Calm     82 % 0.00 in /  0 mm
08:32 37.7 °F /  3.2 °C 32.4 °F /  0.2 °C 30.20 in /  1022.6 hPa Calm     81 % 0.00 in /  0 mm
08:37 37.9 °F /  3.3 °C 32.6 °F /  0.3 °C 30.20 in /  1022.6 hPa Calm     81 % 0.00 in /  0 mm
08:43 38.2 °F /  3.4 °C 32.9 °F /  0.5 °C 30.20 in /  1022.6 hPa Calm     81 % 0.00 in /  0 mm
08:47 38.5 °F /  3.6 °C 32.6 °F /  0.3 °C 30.20 in /  1022.6 hPa Calm     79 % 0.00 in /  0 mm
08:53 38.7 °F /  3.7 °C 32.7 °F /  0.4 °C 30.20 in /  1022.6 hPa Calm     79 % 0.00 in /  0 mm
08:58 38.9 °F /  3.8 °C 32.3 °F /  0.2 °C 30.20 in /  1022.6 hPa Calm     77 % 0.00 in /  0 mm
09:03 39.1 °F /  3.9 °C 32.2 °F /  0.1 °C 30.20 in /  1022.6 hPa Calm     76 % 0.00 in /  0 mm
09:08 39.3 °F /  4.1 °C 32.4 °F /  0.2 °C 30.20 in /  1022.6 hPa Calm     76 % 0.00 in /  0 mm
09:13 39.6 °F /  4.2 °C 32.3 °F /  0.2 °C 30.20 in /  1022.6 hPa West 0.5 mph /  0.8 km/h 1.2 mph /  1.9 km/h 75 % 0.00 in /  0 mm
09:18 39.8 °F /  4.3 °C 32.5 °F /  0.3 °C 30.20 in /  1022.6 hPa Calm     75 % 0.00 in /  0 mm
09:23 40.0 °F /  4.4 °C 32.7 °F /  0.4 °C 30.20 in /  1022.6 hPa West 0.3 mph /  0.5 km/h 2.3 mph /  3.7 km/h 75 % 0.00 in /  0 mm
09:28 40.2 °F /  4.6 °C 32.6 °F /  0.3 °C 30.21 in /  1022.9 hPa Calm     74 % 0.00 in /  0 mm
09:33 40.2 °F /  4.6 °C 32.6 °F /  0.3 °C 30.21 in /  1022.9 hPa Calm     74 % 0.00 in /  0 mm
09:38 40.3 °F /  4.6 °C 32.3 °F /  0.2 °C 30.20 in /  1022.6 hPa Calm     73 % 0.00 in /  0 mm
09:43 40.4 °F /  4.7 °C 32.8 °F /  0.4 °C 30.21 in /  1022.9 hPa Calm     74 % 0.00 in /  0 mm
09:48 40.4 °F /  4.7 °C 32.4 °F /  0.2 °C 30.21 in /  1022.9 hPa Calm     73 % 0.00 in /  0 mm
09:53 40.5 °F /  4.7 °C 32.9 °F /  0.5 °C 30.21 in /  1022.9 hPa Calm     74 % 0.00 in /  0 mm
09:58 40.5 °F /  4.7 °C 32.9 °F /  0.5 °C 30.21 in /  1022.9 hPa Calm     74 % 0.00 in /  0 mm
10:03 40.5 °F /  4.7 °C 33.2 °F /  0.7 °C 30.21 in /  1022.9 hPa Calm     75 % 0.00 in /  0 mm
10:08 40.6 °F /  4.8 °C 33.0 °F /  0.6 °C 30.21 in /  1022.9 hPa NNE 0.2 mph /  0.3 km/h 1.2 mph /  1.9 km/h 74 % 0.00 in /  0 mm
10:14 40.7 °F /  4.8 °C 33.1 °F /  0.6 °C 30.21 in /  1022.9 hPa Calm   1.2 mph /  1.9 km/h 74 % 0.00 in /  0 mm
10:19 40.8 °F /  4.9 °C 32.8 °F /  0.4 °C 30.21 in /  1022.9 hPa Calm     73 % 0.00 in /  0 mm
10:24 40.8 °F /  4.9 °C 33.2 °F /  0.7 °C 30.20 in /  1022.6 hPa NNE 0.2 mph /  0.3 km/h 2.3 mph /  3.7 km/h 74 % 0.00 in /  0 mm
10:29 40.8 °F /  4.9 °C 33.2 °F /  0.7 °C 30.20 in /  1022.6 hPa NNE 1.0 mph /  1.6 km/h 3.0 mph /  4.8 km/h 74 % 0.00 in /  0 mm
10:34 40.8 °F /  4.9 °C 33.8 °F /  1 °C 30.20 in /  1022.6 hPa NNE 2.0 mph /  3.2 km/h 3.0 mph /  4.8 km/h 76 % 0.00 in /  0 mm
10:39 40.7 °F /  4.8 °C 34.0 °F /  1.1 °C 30.20 in /  1022.6 hPa NNE 2.0 mph /  3.2 km/h 4.0 mph /  6.4 km/h 77 % 0.00 in /  0 mm
10:44 40.7 °F /  4.8 °C 34.0 °F /  1.1 °C 30.20 in /  1022.6 hPa NNE 2.0 mph /  3.2 km/h 4.0 mph /  6.4 km/h 77 % 0.00 in /  0 mm
10:49 40.6 °F /  4.8 °C 34.3 °F /  1.3 °C 30.19 in /  1022.2 hPa NNE 0.3 mph /  0.5 km/h 1.2 mph /  1.9 km/h 78 % 0.00 in /  0 mm
10:54 40.6 °F /  4.8 °C 34.9 °F /  1.6 °C 30.19 in /  1022.2 hPa Calm   2.0 mph /  3.2 km/h 80 % 0.00 in /  0 mm
10:59 40.6 °F /  4.8 °C 35.5 °F /  1.9 °C 30.19 in /  1022.2 hPa Calm     82 % 0.00 in /  0 mm
11:04 40.6 °F /  4.8 °C 35.5 °F /  1.9 °C 30.19 in /  1022.2 hPa Calm   1.2 mph /  1.9 km/h 82 % 0.00 in /  0 mm
11:09 40.6 °F /  4.8 °C 36.1 °F /  2.3 °C 30.19 in /  1022.2 hPa Calm     84 % 0.00 in /  0 mm
11:14 40.5 °F /  4.7 °C 36.0 °F /  2.2 °C 30.19 in /  1022.2 hPa NNE 0.6 mph /  1 km/h 2.3 mph /  3.7 km/h 84 % 0.00 in /  0 mm
11:19 40.4 °F /  4.7 °C 35.9 °F /  2.2 °C 30.19 in /  1022.2 hPa Calm     84 % 0.00 in /  0 mm
11:24 40.3 °F /  4.6 °C 35.8 °F /  2.1 °C 30.19 in /  1022.2 hPa Calm     84 % 0.00 in /  0 mm
11:29 40.3 °F /  4.6 °C 35.8 °F /  2.1 °C 30.18 in /  1021.9 hPa Calm   1.0 mph /  1.6 km/h 84 % 0.00 in /  0 mm
11:34 40.3 °F /  4.6 °C 36.1 °F /  2.3 °C 30.18 in /  1021.9 hPa Calm     85 % 0.01 in /  0.25 mm
11:39 40.2 °F /  4.6 °C 36.3 °F /  2.4 °C 30.17 in /  1021.6 hPa NNE 0.2 mph /  0.3 km/h 1.2 mph /  1.9 km/h 86 % 0.01 in /  0.25 mm
11:44 40.0 °F /  4.4 °C 36.2 °F /  2.3 °C 30.17 in /  1021.6 hPa Calm   2.3 mph /  3.7 km/h 86 % 0.01 in /  0.25 mm
11:50 40.0 °F /  4.4 °C 36.4 °F /  2.4 °C 30.17 in /  1021.6 hPa NNE 0.2 mph /  0.3 km/h 2.3 mph /  3.7 km/h 87 % 0.01 in /  0.25 mm
11:55 39.8 °F /  4.3 °C 36.2 °F /  2.3 °C 30.17 in /  1021.6 hPa NNE 0.8 mph /  1.3 km/h 2.3 mph /  3.7 km/h 87 % 0.01 in /  0.25 mm
12:00 39.8 °F /  4.3 °C 36.5 °F /  2.5 °C 30.16 in /  1021.2 hPa NNE 1.4 mph /  2.3 km/h 3.5 mph /  5.6 km/h 88 % 0.01 in /  0.25 mm
12:05 39.7 °F /  4.3 °C 36.4 °F /  2.4 °C 30.16 in /  1021.2 hPa NNE 1.2 mph /  1.9 km/h 2.3 mph /  3.7 km/h 88 % 0.01 in /  0.25 mm
12:10 39.6 °F /  4.2 °C 36.6 °F /  2.6 °C 30.15 in /  1020.9 hPa NNE 0.7 mph /  1.1 km/h 1.2 mph /  1.9 km/h 89 % 0.01 in /  0.25 mm
12:15 39.5 °F /  4.2 °C 36.5 °F /  2.5 °C 30.15 in /  1020.9 hPa ENE 1.0 mph /  1.6 km/h 2.3 mph /  3.7 km/h 89 % 0.01 in /  0.25 mm
12:20 39.5 °F /  4.2 °C 36.5 °F /  2.5 °C 30.15 in /  1020.9 hPa ENE 0.7 mph /  1.1 km/h 2.3 mph /  3.7 km/h 89 % 0.01 in /  0.25 mm
12:25 39.4 °F /  4.1 °C 36.4 °F /  2.4 °C 30.15 in /  1020.9 hPa ENE 0.3 mph /  0.5 km/h 2.3 mph /  3.7 km/h 89 % 0.01 in /  0.25 mm
12:30 39.4 °F /  4.1 °C 36.7 °F /  2.6 °C 30.15 in /  1020.9 hPa ENE 1.5 mph /  2.4 km/h 2.3 mph /  3.7 km/h 90 % 0.01 in /  0.25 mm
12:35 39.3 °F /  4.1 °C 36.6 °F /  2.6 °C 30.15 in /  1020.9 hPa ENE 1.7 mph /  2.7 km/h 3.5 mph /  5.6 km/h 90 % 0.00 in /  0 mm
12:40 39.2 °F /  4 °C 36.5 °F /  2.5 °C 30.15 in /  1020.9 hPa ENE 2.0 mph /  3.2 km/h 3.5 mph /  5.6 km/h 90 % 0.00 in /  0 mm
12:45 39.1 °F /  3.9 °C 36.4 °F /  2.4 °C 30.14 in /  1020.5 hPa ENE 0.4 mph /  0.6 km/h 2.3 mph /  3.7 km/h 90 % 0.00 in /  0 mm
12:50 39.1 °F /  3.9 °C 36.4 °F /  2.4 °C 30.14 in /  1020.5 hPa ENE 2.4 mph /  3.9 km/h 3.5 mph /  5.6 km/h 90 % 0.00 in /  0 mm
12:55 39.1 °F /  3.9 °C 36.4 °F /  2.4 °C 30.13 in /  1020.2 hPa ENE 2.2 mph /  3.5 km/h 3.5 mph /  5.6 km/h 90 % 0.00 in /  0 mm
13:00 39.0 °F /  3.9 °C 36.6 °F /  2.6 °C 30.13 in /  1020.2 hPa East 0.4 mph /  0.6 km/h 2.3 mph /  3.7 km/h 91 % 0.01 in /  0.25 mm
13:05 39.0 °F /  3.9 °C 36.6 °F /  2.6 °C 30.13 in /  1020.2 hPa East 2.5 mph /  4 km/h 3.5 mph /  5.6 km/h 91 % 0.01 in /  0.25 mm
13:10 38.8 °F /  3.8 °C 36.4 °F /  2.4 °C 30.13 in /  1020.2 hPa East 0.9 mph /  1.4 km/h 3.0 mph /  4.8 km/h 91 % 0.01 in /  0.25 mm
13:15 38.7 °F /  3.7 °C 36.3 °F /  2.4 °C 30.13 in /  1020.2 hPa East 1.6 mph /  2.6 km/h 3.0 mph /  4.8 km/h 91 % 0.01 in /  0.25 mm
13:21 38.6 °F /  3.7 °C 36.2 °F /  2.3 °C 30.13 in /  1020.2 hPa East 2.0 mph /  3.2 km/h 3.5 mph /  5.6 km/h 91 % 0.01 in /  0.25 mm
13:26 38.5 °F /  3.6 °C 36.1 °F /  2.3 °C 30.12 in /  1019.9 hPa East 1.7 mph /  2.7 km/h 3.5 mph /  5.6 km/h 91 % 0.01 in /  0.25 mm
13:31 38.5 °F /  3.6 °C 36.1 °F /  2.3 °C 30.12 in /  1019.9 hPa East 1.0 mph /  1.6 km/h 2.3 mph /  3.7 km/h 91 % 0.02 in /  0.51 mm
13:36 38.5 °F /  3.6 °C 36.1 °F /  2.3 °C 30.11 in /  1019.5 hPa Calm     91 % 0.02 in /  0.51 mm
13:41 38.4 °F /  3.6 °C 36.0 °F /  2.2 °C 30.11 in /  1019.5 hPa East 1.1 mph /  1.8 km/h 2.3 mph /  3.7 km/h 91 % 0.02 in /  0.51 mm
13:46 38.4 °F /  3.6 °C 36.0 °F /  2.2 °C 30.11 in /  1019.5 hPa East 1.9 mph /  3.1 km/h 3.5 mph /  5.6 km/h 91 % 0.02 in /  0.51 mm
13:51 38.3 °F /  3.5 °C 35.9 °F /  2.2 °C 30.11 in /  1019.5 hPa East 0.9 mph /  1.4 km/h 2.3 mph /  3.7 km/h 91 % 0.02 in /  0.51 mm
13:56 38.3 °F /  3.5 °C 35.9 °F /  2.2 °C 30.10 in /  1019.2 hPa East 1.4 mph /  2.3 km/h 2.3 mph /  3.7 km/h 91 % 0.02 in /  0.51 mm
14:01 38.3 °F /  3.5 °C 35.9 °F /  2.2 °C 30.11 in /  1019.5 hPa East 1.4 mph /  2.3 km/h 2.3 mph /  3.7 km/h 91 % 0.01 in /  0.25 mm
14:06 38.3 °F /  3.5 °C 35.9 °F /  2.2 °C 30.11 in /  1019.5 hPa East 1.1 mph /  1.8 km/h 2.3 mph /  3.7 km/h 91 % 0.01 in /  0.25 mm
14:11 38.2 °F /  3.4 °C 35.8 °F /  2.1 °C 30.11 in /  1019.5 hPa East 0.7 mph /  1.1 km/h 1.2 mph /  1.9 km/h 91 % 0.01 in /  0.25 mm
14:16 38.2 °F /  3.4 °C 35.8 °F /  2.1 °C 30.11 in /  1019.5 hPa East 1.4 mph /  2.3 km/h 2.3 mph /  3.7 km/h 91 % 0.01 in /  0.25 mm
14:22 38.1 °F /  3.4 °C 36.0 °F /  2.2 °C 30.10 in /  1019.2 hPa East 2.1 mph /  3.4 km/h 4.6 mph /  7.4 km/h 92 % 0.02 in /  0.51 mm
14:27 38.1 °F /  3.4 °C 36.0 °F /  2.2 °C 30.11 in /  1019.5 hPa East 0.2 mph /  0.3 km/h 2.3 mph /  3.7 km/h 92 % 0.02 in /  0.51 mm
14:32 38.0 °F /  3.3 °C 35.9 °F /  2.2 °C 30.11 in /  1019.5 hPa East 0.3 mph /  0.5 km/h 2.3 mph /  3.7 km/h 92 % 0.01 in /  0.25 mm
14:37 38.0 °F /  3.3 °C 35.9 °F /  2.2 °C 30.10 in /  1019.2 hPa East 2.1 mph /  3.4 km/h 3.5 mph /  5.6 km/h 92 % 0.01 in /  0.25 mm
14:42 38.0 °F /  3.3 °C 35.9 °F /  2.2 °C 30.11 in /  1019.5 hPa East 1.6 mph /  2.6 km/h 3.5 mph /  5.6 km/h 92 % 0.01 in /  0.25 mm
14:47 38.0 °F /  3.3 °C 35.9 °F /  2.2 °C 30.10 in /  1019.2 hPa East 2.7 mph /  4.3 km/h 4.6 mph /  7.4 km/h 92 % 0.01 in /  0.25 mm
14:52 37.9 °F /  3.3 °C 36.1 °F /  2.3 °C 30.10 in /  1019.2 hPa East 2.7 mph /  4.3 km/h 4.6 mph /  7.4 km/h 93 % 0.01 in /  0.25 mm
14:57 37.9 °F /  3.3 °C 36.1 °F /  2.3 °C 30.10 in /  1019.2 hPa East 2.2 mph /  3.5 km/h 3.5 mph /  5.6 km/h 93 % 0.01 in /  0.25 mm
15:02 37.8 °F /  3.2 °C 35.7 °F /  2.1 °C 30.10 in /  1019.2 hPa East 0.5 mph /  0.8 km/h 2.3 mph /  3.7 km/h 92 % 0.01 in /  0.25 mm
15:07 37.8 °F /  3.2 °C 36.0 °F /  2.2 °C 30.11 in /  1019.5 hPa East 1.3 mph /  2.1 km/h 3.5 mph /  5.6 km/h 93 % 0.01 in /  0.25 mm
15:12 37.8 °F /  3.2 °C 36.0 °F /  2.2 °C 30.10 in /  1019.2 hPa East 0.3 mph /  0.5 km/h 2.3 mph /  3.7 km/h 93 % 0.01 in /  0.25 mm
15:17 37.8 °F /  3.2 °C 36.0 °F /  2.2 °C 30.11 in /  1019.5 hPa East 1.0 mph /  1.6 km/h 2.0 mph /  3.2 km/h 93 % 0.01 in /  0.25 mm
15:22 37.8 °F /  3.2 °C 36.0 °F /  2.2 °C 30.10 in /  1019.2 hPa East 1.4 mph /  2.3 km/h 2.3 mph /  3.7 km/h 93 % 0.00 in /  0 mm
15:27 37.8 °F /  3.2 °C 36.0 °F /  2.2 °C 30.09 in /  1018.8 hPa East 2.2 mph /  3.5 km/h 4.6 mph /  7.4 km/h 93 % 0.00 in /  0 mm
15:32 37.8 °F /  3.2 °C 36.0 °F /  2.2 °C 30.09 in /  1018.8 hPa East 2.2 mph /  3.5 km/h 3.5 mph /  5.6 km/h 93 % 0.00 in /  0 mm
15:37 37.8 °F /  3.2 °C 36.0 °F /  2.2 °C 30.09 in /  1018.8 hPa East 3.7 mph /  6 km/h 6.0 mph /  9.7 km/h 93 % 0.00 in /  0 mm
15:43 37.9 °F /  3.3 °C 36.3 °F /  2.4 °C 30.09 in /  1018.8 hPa East 4.9 mph /  7.9 km/h 5.8 mph /  9.3 km/h 94 % 0.00 in /  0 mm
15:48 37.9 °F /  3.3 °C 36.3 °F /  2.4 °C 30.08 in /  1018.5 hPa East 4.8 mph /  7.7 km/h 5.8 mph /  9.3 km/h 94 % 0.00 in /  0 mm
15:53 37.9 °F /  3.3 °C 36.3 °F /  2.4 °C 30.08 in /  1018.5 hPa East 4.7 mph /  7.6 km/h 7.0 mph /  11.3 km/h 94 % 0.00 in /  0 mm
15:58 38.0 °F /  3.3 °C 36.4 °F /  2.4 °C 30.08 in /  1018.5 hPa East 3.9 mph /  6.3 km/h 5.8 mph /  9.3 km/h 94 % 0.00 in /  0 mm
16:03 38.0 °F /  3.3 °C 36.4 °F /  2.4 °C 30.07 in /  1018.2 hPa East 4.6 mph /  7.4 km/h 6.9 mph /  11.1 km/h 94 % 0.00 in /  0 mm
16:08 38.0 °F /  3.3 °C 36.4 °F /  2.4 °C 30.08 in /  1018.5 hPa East 3.6 mph /  5.8 km/h 4.6 mph /  7.4 km/h 94 % 0.00 in /  0 mm
16:13 38.0 °F /  3.3 °C 36.4 °F /  2.4 °C 30.08 in /  1018.5 hPa East 3.5 mph /  5.6 km/h 4.6 mph /  7.4 km/h 94 % 0.00 in /  0 mm
16:18 38.0 °F /  3.3 °C 36.4 °F /  2.4 °C 30.08 in /  1018.5 hPa East 2.2 mph /  3.5 km/h 3.5 mph /  5.6 km/h 94 % 0.00 in /  0 mm
16:23 38.0 °F /  3.3 °C 36.4 °F /  2.4 °C 30.08 in /  1018.5 hPa East 4.1 mph /  6.6 km/h 6.0 mph /  9.7 km/h 94 % 0.00 in /  0 mm
16:28 38.0 °F /  3.3 °C 36.4 °F /  2.4 °C 30.08 in /  1018.5 hPa East 2.1 mph /  3.4 km/h 5.0 mph /  8 km/h 94 % 0.00 in /  0 mm
16:33 38.0 °F /  3.3 °C 36.7 °F /  2.6 °C 30.07 in /  1018.2 hPa East 1.7 mph /  2.7 km/h 3.5 mph /  5.6 km/h 95 % 0.00 in /  0 mm
16:38 38.0 °F /  3.3 °C 36.7 °F /  2.6 °C 30.08 in /  1018.5 hPa East 0.7 mph /  1.1 km/h 1.2 mph /  1.9 km/h 95 % 0.00 in /  0 mm
16:44 38.0 °F /  3.3 °C 36.7 °F /  2.6 °C 30.07 in /  1018.2 hPa Calm     95 % 0.00 in /  0 mm
16:49 38.0 °F /  3.3 °C 36.7 °F /  2.6 °C 30.08 in /  1018.5 hPa Calm     95 % 0.00 in /  0 mm
16:54 38.0 °F /  3.3 °C 36.7 °F /  2.6 °C 30.08 in /  1018.5 hPa Calm   1.2 mph /  1.9 km/h 95 % 0.00 in /  0 mm
16:59 38.0 °F /  3.3 °C 36.7 °F /  2.6 °C 30.08 in /  1018.5 hPa East 0.6 mph /  1 km/h 1.2 mph /  1.9 km/h 95 % 0.00 in /  0 mm
17:04 38.0 °F /  3.3 °C 36.7 °F /  2.6 °C 30.08 in /  1018.5 hPa East 0.2 mph /  0.3 km/h 1.2 mph /  1.9 km/h 95 % 0.00 in /  0 mm
17:09 38.0 °F /  3.3 °C 36.7 °F /  2.6 °C 30.08 in /  1018.5 hPa Calm     95 % 0.00 in /  0 mm
17:14 38.0 °F /  3.3 °C 36.7 °F /  2.6 °C 30.08 in /  1018.5 hPa East 0.3 mph /  0.5 km/h 1.2 mph /  1.9 km/h 95 % 0.00 in /  0 mm
17:19 38.0 °F /  3.3 °C 36.7 °F /  2.6 °C 30.08 in /  1018.5 hPa East 0.1 mph /  0.2 km/h 1.2 mph /  1.9 km/h 95 % 0.00 in /  0 mm
17:24 38.0 °F /  3.3 °C 36.7 °F /  2.6 °C 30.08 in /  1018.5 hPa East 0.1 mph /  0.2 km/h 1.0 mph /  1.6 km/h 95 % 0.00 in /  0 mm
17:29 38.0 °F /  3.3 °C 36.7 °F /  2.6 °C 30.07 in /  1018.2 hPa East 0.3 mph /  0.5 km/h 2.3 mph /  3.7 km/h 95 % 0.00 in /  0 mm
17:34 38.0 °F /  3.3 °C 36.7 °F /  2.6 °C 30.08 in /  1018.5 hPa East 0.4 mph /  0.6 km/h 1.2 mph /  1.9 km/h 95 % 0.00 in /  0 mm
17:39 38.0 °F /  3.3 °C 36.7 °F /  2.6 °C 30.08 in /  1018.5 hPa Calm     95 % 0.00 in /  0 mm
17:44 38.0 °F /  3.3 °C 36.7 °F /  2.6 °C 30.09 in /  1018.8 hPa East 0.2 mph /  0.3 km/h 1.2 mph /  1.9 km/h 95 % 0.00 in /  0 mm
17:50 38.0 °F /  3.3 °C 36.7 °F /  2.6 °C 30.08 in /  1018.5 hPa East 1.3 mph /  2.1 km/h 2.3 mph /  3.7 km/h 95 % 0.00 in /  0 mm
17:55 38.0 °F /  3.3 °C 36.7 °F /  2.6 °C 30.08 in /  1018.5 hPa East 1.8 mph /  2.9 km/h 3.5 mph /  5.6 km/h 95 % 0.00 in /  0 mm
18:00 38.0 °F /  3.3 °C 36.7 °F /  2.6 °C 30.07 in /  1018.2 hPa East 1.5 mph /  2.4 km/h 3.5 mph /  5.6 km/h 95 % 0.00 in /  0 mm
18:05 38.0 °F /  3.3 °C 36.7 °F /  2.6 °C 30.08 in /  1018.5 hPa East 1.2 mph /  1.9 km/h 2.3 mph /  3.7 km/h 95 % 0.00 in /  0 mm
18:10 38.0 °F /  3.3 °C 36.7 °F /  2.6 °C 30.07 in /  1018.2 hPa East 2.4 mph /  3.9 km/h 3.5 mph /  5.6 km/h 95 % 0.00 in /  0 mm
18:15 38.1 °F /  3.4 °C 36.8 °F /  2.7 °C 30.07 in /  1018.2 hPa East 2.2 mph /  3.5 km/h 3.5 mph /  5.6 km/h 95 % 0.00 in /  0 mm
18:20 38.1 °F /  3.4 °C 36.8 °F /  2.7 °C 30.07 in /  1018.2 hPa East 2.1 mph /  3.4 km/h 3.5 mph /  5.6 km/h 95 % 0.00 in /  0 mm
18:25 38.2 °F /  3.4 °C 36.9 °F /  2.7 °C 30.07 in /  1018.2 hPa East 1.5 mph /  2.4 km/h 2.3 mph /  3.7 km/h 95 % 0.00 in /  0 mm
18:30 38.3 °F /  3.5 °C 37.0 °F /  2.8 °C 30.07 in /  1018.2 hPa ENE 2.3 mph /  3.7 km/h 6.9 mph /  11.1 km/h 95 % 0.00 in /  0 mm
18:35 38.3 °F /  3.5 °C 37.0 °F /  2.8 °C 30.06 in /  1017.8 hPa East 3.7 mph /  6 km/h 6.0 mph /  9.7 km/h 95 % 0.00 in /  0 mm
18:40 38.4 °F /  3.6 °C 37.4 °F /  3 °C 30.05 in /  1017.5 hPa East 5.3 mph /  8.5 km/h 7.0 mph /  11.3 km/h 96 % 0.00 in /  0 mm
18:45 38.4 °F /  3.6 °C 37.4 °F /  3 °C 30.05 in /  1017.5 hPa East 3.7 mph /  6 km/h 5.8 mph /  9.3 km/h 96 % 0.00 in /  0 mm
18:50 38.4 °F /  3.6 °C 37.4 °F /  3 °C 30.05 in /  1017.5 hPa East 3.1 mph /  5 km/h 6.0 mph /  9.7 km/h 96 % 0.00 in /  0 mm
18:56 38.3 °F /  3.5 °C 37.3 °F /  2.9 °C 30.05 in /  1017.5 hPa East 4.9 mph /  7.9 km/h 5.8 mph /  9.3 km/h 96 % 0.00 in /  0 mm
19:01 38.3 °F /  3.5 °C 37.3 °F /  2.9 °C 30.04 in /  1017.2 hPa East 4.9 mph /  7.9 km/h 7.0 mph /  11.3 km/h 96 % 0.00 in /  0 mm
19:06 38.2 °F /  3.4 °C 36.9 °F /  2.7 °C 30.04 in /  1017.2 hPa East 5.1 mph /  8.2 km/h 6.9 mph /  11.1 km/h 95 % 0.00 in /  0 mm
19:11 38.2 °F /  3.4 °C 37.2 °F /  2.9 °C 30.04 in /  1017.2 hPa East 5.1 mph /  8.2 km/h 8.1 mph /  13 km/h 96 % 0.00 in /  0 mm
19:16 38.1 °F /  3.4 °C 37.1 °F /  2.8 °C 30.04 in /  1017.2 hPa East 5.8 mph /  9.3 km/h 6.9 mph /  11.1 km/h 96 % 0.00 in /  0 mm
19:21 38.1 °F /  3.4 °C 37.1 °F /  2.8 °C 30.03 in /  1016.8 hPa East 6.2 mph /  10 km/h 9.2 mph /  14.8 km/h 96 % 0.00 in /  0 mm
19:26 38.1 °F /  3.4 °C 37.1 °F /  2.8 °C 30.03 in /  1016.8 hPa ENE 3.8 mph /  6.1 km/h 8.1 mph /  13 km/h 96 % 0.00 in /  0 mm
19:31 38.1 °F /  3.4 °C 37.1 °F /  2.8 °C 30.03 in /  1016.8 hPa East 3.4 mph /  5.5 km/h 5.0 mph /  8 km/h 96 % 0.01 in /  0.25 mm
19:36 38.1 °F /  3.4 °C 37.1 °F /  2.8 °C 30.03 in /  1016.8 hPa ENE 4.6 mph /  7.4 km/h 6.9 mph /  11.1 km/h 96 % 0.01 in /  0.25 mm
19:41 38.1 °F /  3.4 °C 37.1 °F /  2.8 °C 30.04 in /  1017.2 hPa ENE 6.4 mph /  10.3 km/h 9.2 mph /  14.8 km/h 96 % 0.02 in /  0.51 mm
19:46 38.1 °F /  3.4 °C 37.1 °F /  2.8 °C 30.03 in /  1016.8 hPa ENE 3.9 mph /  6.3 km/h 7.0 mph /  11.3 km/h 96 % 0.02 in /  0.51 mm
19:51 38.1 °F /  3.4 °C 37.1 °F /  2.8 °C 30.03 in /  1016.8 hPa ENE 4.4 mph /  7.1 km/h 6.9 mph /  11.1 km/h 96 % 0.03 in /  0.76 mm
19:56 38.1 °F /  3.4 °C 37.1 °F /  2.8 °C 30.02 in /  1016.5 hPa ENE 5.3 mph /  8.5 km/h 7.0 mph /  11.3 km/h 96 % 0.04 in /  1.02 mm
20:02 38.1 °F /  3.4 °C 37.1 °F /  2.8 °C 30.02 in /  1016.5 hPa East 5.2 mph /  8.4 km/h 6.0 mph /  9.7 km/h 96 % 0.04 in /  1.02 mm
20:07 38.1 °F /  3.4 °C 37.1 °F /  2.8 °C 30.01 in /  1016.1 hPa East 7.8 mph /  12.6 km/h 11.5 mph /  18.5 km/h 96 % 0.05 in /  1.27 mm
20:12 38.0 °F /  3.3 °C 37.0 °F /  2.8 °C 30.01 in /  1016.1 hPa East 7.1 mph /  11.4 km/h 9.2 mph /  14.8 km/h 96 % 0.05 in /  1.27 mm
20:17 38.0 °F /  3.3 °C 37.0 °F /  2.8 °C 30.02 in /  1016.5 hPa East 6.9 mph /  11.1 km/h 9.0 mph /  14.5 km/h 96 % 0.05 in /  1.27 mm
20:22 38.0 °F /  3.3 °C 37.0 °F /  2.8 °C 30.02 in /  1016.5 hPa East 4.4 mph /  7.1 km/h 6.9 mph /  11.1 km/h 96 % 0.05 in /  1.27 mm
20:27 38.0 °F /  3.3 °C 37.0 °F /  2.8 °C 30.03 in /  1016.8 hPa ENE 2.4 mph /  3.9 km/h 4.0 mph /  6.4 km/h 96 % 0.05 in /  1.27 mm
20:32 38.1 °F /  3.4 °C 37.1 °F /  2.8 °C 30.02 in /  1016.5 hPa East 4.6 mph /  7.4 km/h 6.0 mph /  9.7 km/h 96 % 0.05 in /  1.27 mm
20:37 38.1 °F /  3.4 °C 37.1 °F /  2.8 °C 30.01 in /  1016.1 hPa East 5.9 mph /  9.5 km/h 7.0 mph /  11.3 km/h 96 % 0.05 in /  1.27 mm
20:42 38.1 °F /  3.4 °C 37.1 °F /  2.8 °C 30.01 in /  1016.1 hPa East 5.2 mph /  8.4 km/h 8.1 mph /  13 km/h 96 % 0.05 in /  1.27 mm
20:47 38.1 °F /  3.4 °C 37.1 °F /  2.8 °C 30.01 in /  1016.1 hPa East 5.7 mph /  9.2 km/h 8.1 mph /  13 km/h 96 % 0.04 in /  1.02 mm
20:52 38.1 °F /  3.4 °C 37.1 °F /  2.8 °C 30.01 in /  1016.1 hPa ENE 4.5 mph /  7.2 km/h 6.0 mph /  9.7 km/h 96 % 0.04 in /  1.02 mm
20:57 38.1 °F /  3.4 °C 37.1 °F /  2.8 °C 30.01 in /  1016.1 hPa ENE 4.4 mph /  7.1 km/h 6.9 mph /  11.1 km/h 96 % 0.03 in /  0.76 mm
21:02 38.1 °F /  3.4 °C 37.1 °F /  2.8 °C 30.00 in /  1015.8 hPa ENE 4.1 mph /  6.6 km/h 6.9 mph /  11.1 km/h 96 % 0.03 in /  0.76 mm
21:07 38.2 °F /  3.4 °C 37.2 °F /  2.9 °C 30.00 in /  1015.8 hPa ENE 4.3 mph /  6.9 km/h 8.1 mph /  13 km/h 96 % 0.02 in /  0.51 mm
21:12 38.2 °F /  3.4 °C 37.2 °F /  2.9 °C 30.00 in /  1015.8 hPa East 5.1 mph /  8.2 km/h 9.2 mph /  14.8 km/h 96 % 0.03 in /  0.76 mm
21:17 38.3 °F /  3.5 °C 37.3 °F /  2.9 °C 30.00 in /  1015.8 hPa East 4.9 mph /  7.9 km/h 6.9 mph /  11.1 km/h 96 % 0.04 in /  1.02 mm
21:23 38.3 °F /  3.5 °C 37.5 °F /  3.1 °C 29.99 in /  1015.5 hPa ENE 4.4 mph /  7.1 km/h 6.9 mph /  11.1 km/h 97 % 0.04 in /  1.02 mm
21:28 38.3 °F /  3.5 °C 37.5 °F /  3.1 °C 30.00 in /  1015.8 hPa ENE 5.9 mph /  9.5 km/h 8.1 mph /  13 km/h 97 % 0.05 in /  1.27 mm
21:33 38.4 °F /  3.6 °C 37.6 °F /  3.1 °C 30.00 in /  1015.8 hPa ENE 5.4 mph /  8.7 km/h 8.1 mph /  13 km/h 97 % 0.05 in /  1.27 mm
21:38 38.4 °F /  3.6 °C 37.6 °F /  3.1 °C 30.00 in /  1015.8 hPa ENE 4.7 mph /  7.6 km/h 7.0 mph /  11.3 km/h 97 % 0.05 in /  1.27 mm
21:43 38.5 °F /  3.6 °C 37.7 °F /  3.2 °C 30.01 in /  1016.1 hPa ENE 4.4 mph /  7.1 km/h 7.0 mph /  11.3 km/h 97 % 0.04 in /  1.02 mm
21:48 38.6 °F /  3.7 °C 37.8 °F /  3.2 °C 30.00 in /  1015.8 hPa ENE 5.7 mph /  9.2 km/h 8.1 mph /  13 km/h 97 % 0.05 in /  1.27 mm
21:53 38.6 °F /  3.7 °C 37.8 °F /  3.2 °C 29.99 in /  1015.5 hPa ENE 4.0 mph /  6.4 km/h 8.1 mph /  13 km/h 97 % 0.05 in /  1.27 mm
21:58 38.6 °F /  3.7 °C 37.8 °F /  3.2 °C 29.99 in /  1015.5 hPa ENE 4.1 mph /  6.6 km/h 9.2 mph /  14.8 km/h 97 % 0.05 in /  1.27 mm
22:03 38.7 °F /  3.7 °C 37.9 °F /  3.3 °C 29.99 in /  1015.5 hPa East 5.4 mph /  8.7 km/h 8.1 mph /  13 km/h 97 % 0.05 in /  1.27 mm
22:08 38.7 °F /  3.7 °C 37.9 °F /  3.3 °C 29.99 in /  1015.5 hPa ENE 4.4 mph /  7.1 km/h 9.2 mph /  14.8 km/h 97 % 0.05 in /  1.27 mm
22:13 38.8 °F /  3.8 °C 38.0 °F /  3.3 °C 29.99 in /  1015.5 hPa ENE 5.6 mph /  9 km/h 9.2 mph /  14.8 km/h 97 % 0.04 in /  1.02 mm
22:18 38.8 °F /  3.8 °C 38.0 °F /  3.3 °C 29.99 in /  1015.5 hPa ENE 5.7 mph /  9.2 km/h 9.2 mph /  14.8 km/h 97 % 0.03 in /  0.76 mm
22:23 38.9 °F /  3.8 °C 38.1 °F /  3.4 °C 29.99 in /  1015.5 hPa ENE 6.4 mph /  10.3 km/h 8.1 mph /  13 km/h 97 % 0.02 in /  0.51 mm
22:28 39.0 °F /  3.9 °C 38.2 °F /  3.4 °C 29.98 in /  1015.1 hPa ENE 7.5 mph /  12.1 km/h 9.2 mph /  14.8 km/h 97 % 0.02 in /  0.51 mm
22:33 39.0 °F /  3.9 °C 38.2 °F /  3.4 °C 29.98 in /  1015.1 hPa East 6.2 mph /  10 km/h 9.2 mph /  14.8 km/h 97 % 0.01 in /  0.25 mm
22:38 39.1 °F /  3.9 °C 38.3 °F /  3.5 °C 29.98 in /  1015.1 hPa ENE 5.7 mph /  9.2 km/h 8.1 mph /  13 km/h 97 % 0.01 in /  0.25 mm
22:43 39.1 °F /  3.9 °C 38.3 °F /  3.5 °C 29.97 in /  1014.8 hPa ENE 4.2 mph /  6.8 km/h 6.9 mph /  11.1 km/h 97 % 0.01 in /  0.25 mm
22:48 39.1 °F /  3.9 °C 38.3 °F /  3.5 °C 29.96 in /  1014.4 hPa East 6.9 mph /  11.1 km/h 10.0 mph /  16.1 km/h 97 % 0.00 in /  0 mm
22:53 39.2 °F /  4 °C 38.4 °F /  3.6 °C 29.95 in /  1014.1 hPa East 7.3 mph /  11.7 km/h 9.2 mph /  14.8 km/h 97 % 0.00 in /  0 mm
22:58 39.2 °F /  4 °C 38.4 °F /  3.6 °C 29.95 in /  1014.1 hPa ENE 6.5 mph /  10.5 km/h 9.0 mph /  14.5 km/h 97 % 0.00 in /  0 mm
23:03 39.2 °F /  4 °C 38.4 °F /  3.6 °C 29.94 in /  1013.8 hPa ENE 6.3 mph /  10.1 km/h 8.1 mph /  13 km/h 97 % 0.00 in /  0 mm
23:09 39.2 °F /  4 °C 38.4 °F /  3.6 °C 29.94 in /  1013.8 hPa East 7.2 mph /  11.6 km/h 9.2 mph /  14.8 km/h 97 % 0.00 in /  0 mm
23:14 39.2 °F /  4 °C 38.4 °F /  3.6 °C 29.94 in /  1013.8 hPa East 5.7 mph /  9.2 km/h 8.0 mph /  12.9 km/h 97 % 0.00 in /  0 mm
23:19 39.3 °F /  4.1 °C 38.5 °F /  3.6 °C 29.94 in /  1013.8 hPa NE 6.0 mph /  9.7 km/h 9.2 mph /  14.8 km/h 97 % 0.00 in /  0 mm
23:24 39.3 °F /  4.1 °C 38.5 °F /  3.6 °C 29.94 in /  1013.8 hPa ENE 5.6 mph /  9 km/h 6.9 mph /  11.1 km/h 97 % 0.00 in /  0 mm
23:29 39.3 °F /  4.1 °C 38.6 °F /  3.7 °C 29.95 in /  1014.1 hPa ENE 5.0 mph /  8 km/h 9.0 mph /  14.5 km/h 97 % 0.00 in /  0 mm
23:34 39.4 °F /  4.1 °C 38.6 °F /  3.7 °C 29.95 in /  1014.1 hPa ENE 6.0 mph /  9.7 km/h 10.0 mph /  16.1 km/h 97 % 0.00 in /  0 mm
23:39 39.5 °F /  4.2 °C 38.7 °F /  3.7 °C 29.95 in /  1014.1 hPa ENE 7.0 mph /  11.3 km/h 10.0 mph /  16.1 km/h 97 % 0.00 in /  0 mm
23:44 39.4 °F /  4.1 °C 38.6 °F /  3.7 °C 29.94 in /  1013.8 hPa ENE 8.0 mph /  12.9 km/h 12.0 mph /  19.3 km/h 97 % 0.00 in /  0 mm
23:49 39.0 °F /  3.9 °C 38.2 °F /  3.4 °C 29.94 in /  1013.8 hPa ENE 9.0 mph /  14.5 km/h 14.0 mph /  22.5 km/h 97 % 0.00 in /  0 mm
23:54 38.7 °F /  3.7 °C 37.9 °F /  3.3 °C 29.93 in /  1013.4 hPa ENE 9.0 mph /  14.5 km/h 13.0 mph /  20.9 km/h 97 % 0.00 in /  0 mm
23:59 38.6 °F /  3.7 °C 37.8 °F /  3.2 °C 29.92 in /  1013.1 hPa ENE 7.6 mph /  12.2 km/h 12.0 mph /  19.3 km/h 97 % 0.00 in /  0 mm
Crab Meadow Weather
Compliments of Weather Underground - 3 mb

Script developed by  Jim McMurry - jmcmurry@mwt.net Adapted for the template by  Wim van der Kuil - Leuven-Template.eu

Weather Terms: Wind Chill Advisory - Dangerous wind chills of -20°F to -30°F.